Theta_e
342 342 342 343 344 344 344 343 342 342 337 329 327 329 333 335 337 338 338 337 336 335 334 334 333 334 334 334 335 335 338 339 341 341 339 342 343 343 344 345 344 344 343 343 343 342 342 344 345 344 344 343 343 344 344 344 344 344 339 333 336 341 344 344 343 342 340 339 341 344 344 343 343 343 342 339 337 339 341 342 342 342 342 343 343
342 342 342 343 343 344 344 342 342 342 338 331 330 334 338 340 341 341 341 340 339 338 338 338 338 338 336 335 334 334 335 337 340 342 342 343 344 344 344 344 343 342 342 343 343 342 342 344 345 344 344 343 344 343 344 343 343 344 338 331 334 341 345 345 344 343 340 338 340 344 345 344 343 343 342 340 337 338 340 340 340 341 342 342 342
341 341 342 343 343 344 344 342 342 339 335 331 332 338 341 341 342 342 341 341 341 341 340 340 341 342 341 340 339 339 339 339 340 341 343 344 344 344 343 343 341 341 342 343 344 343 343 344 344 344 343 344 344 342 343 343 342 338 329 328 334 341 345 345 344 343 339 338 340 344 344 343 343 342 342 342 340 340 340 340 341 341 342 341 341
341 341 342 343 342 343 343 342 341 335 331 330 332 337 340 341 342 341 340 340 341 340 340 341 340 341 342 341 342 342 342 342 342 342 343 344 344 344 343 342 341 341 342 342 343 343 344 343 344 345 344 344 342 342 342 337 331 323 319 327 337 342 344 344 343 342 340 340 341 343 343 343 343 342 342 342 341 341 341 341 342 342 342 342 343
341 340 342 343 342 342 343 343 340 335 331 330 332 334 336 338 339 339 338 339 341 341 341 341 341 341 341 341 341 342 342 343 343 343 343 343 344 344 343 342 341 341 342 342 342 343 344 343 343 346 345 343 342 343 339 329 320 315 321 333 340 343 344 344 343 342 340 340 342 343 343 343 343 342 341 341 341 341 341 341 341 342 342 342 342
341 340 342 342 342 342 343 343 340 336 332 332 334 335 335 337 338 338 339 341 343 343 342 342 343 342 342 342 342 342 342 343 343 343 343 342 343 343 343 343 342 342 343 343 342 343 344 344 344 345 345 343 343 343 337 332 325 318 328 339 341 342 342 342 340 340 340 341 343 343 343 342 342 342 342 342 341 341 341 341 341 341 341 341 341
340 340 341 340 342 343 343 342 338 334 333 336 340 340 340 340 340 340 341 342 343 343 342 342 342 343 344 344 343 343 343 343 343 343 343 343 344 344 344 344 343 343 343 343 343 343 343 345 344 343 344 344 344 343 338 336 333 326 330 337 337 338 339 339 338 340 341 342 343 342 343 342 342 342 342 341 341 341 341 341 340 340 340 341 340
340 339 340 340 342 342 342 341 337 334 338 341 343 343 343 342 342 343 343 343 343 342 342 342 343 344 344 344 344 344 344 344 343 343 343 343 344 344 343 343 343 343 343 342 343 343 343 344 344 343 343 344 343 343 340 336 338 337 335 337 338 339 340 340 340 341 341 341 342 342 342 343 343 342 342 341 341 341 340 340 339 339 340 340 340
340 340 340 340 341 342 341 338 336 338 342 343 343 343 343 343 343 344 344 344 343 343 343 343 344 344 343 344 344 344 344 343 342 343 343 344 343 343 342 342 343 343 342 342 343 343 343 343 343 343 342 343 343 342 342 337 337 340 341 341 341 341 341 341 340 340 339 340 340 341 342 343 343 342 342 342 342 341 339 338 338 337 337 338 338
340 340 340 340 341 342 340 336 336 340 343 343 343 343 343 343 343 343 343 343 343 343 343 343 344 343 343 344 345 344 343 341 342 343 343 343 344 344 343 342 343 343 342 343 343 343 343 343 343 343 342 342 342 342 342 338 337 338 340 340 340 340 340 339 339 339 339 339 340 340 342 342 342 342 342 342 342 340 340 339 337 336 335 336 336
341 341 340 340 341 341 338 335 338 342 343 343 343 341 342 343 342 342 342 343 344 343 343 343 343 343 343 344 345 345 343 340 341 344 343 342 343 345 344 342 342 342 342 343 343 342 343 343 343 342 342 342 342 343 342 341 339 338 338 339 339 338 337 337 338 338 339 339 340 340 341 342 342 343 342 343 343 342 342 341 338 336 335 336 336
341 340 340 341 341 340 336 336 341 343 343 343 343 341 341 343 343 342 342 343 344 343 343 344 343 342 343 344 344 345 343 339 340 343 343 342 343 344 344 342 342 342 342 343 343 343 342 342 343 343 342 342 343 343 342 342 340 339 339 338 338 338 338 337 337 337 338 338 338 339 341 341 342 343 343 343 343 343 342 340 338 336 335 336 336
339 340 341 342 341 338 336 339 342 342 343 343 343 343 342 342 343 343 343 344 343 343 344 343 342 342 343 343 344 345 343 339 339 342 343 343 343 343 344 343 342 342 342 342 343 343 342 342 343 343 342 343 343 343 343 342 342 341 340 338 337 337 337 336 335 333 332 331 332 335 338 340 342 342 343 342 342 342 340 339 338 334 334 335 336
339 340 341 341 340 337 337 341 342 342 344 342 342 342 342 343 342 343 343 344 344 343 343 342 341 342 342 343 345 345 344 340 339 341 343 343 342 342 342 343 342 342 342 342 343 342 342 343 342 341 342 342 343 343 343 342 342 341 340 338 336 335 334 333 332 330 329 329 328 329 331 334 338 340 340 341 341 339 338 339 337 334 333 334 334
340 341 339 337 335 336 339 342 342 342 342 341 341 341 341 343 343 342 343 344 344 343 342 342 342 343 343 343 345 346 344 341 339 340 343 342 341 342 341 342 342 341 342 342 342 342 342 342 341 341 342 342 342 343 343 342 341 340 340 338 336 335 334 333 332 331 330 329 329 329 329 331 334 337 337 338 338 337 338 338 335 334 333 334 335
340 339 334 329 328 333 340 341 342 342 341 341 340 341 342 342 343 343 344 344 344 343 342 342 342 343 344 343 344 346 345 343 341 340 342 343 342 342 341 341 342 341 341 342 342 342 342 341 341 342 342 341 341 342 342 343 343 341 340 338 336 335 335 334 334 333 333 333 331 330 331 334 335 335 336 336 336 337 337 336 334 333 333 335 337
338 336 331 327 326 332 339 341 343 342 341 341 341 342 343 343 344 343 344 344 343 343 342 342 342 342 342 343 344 346 345 345 343 341 342 343 342 342 342 341 341 342 341 341 341 340 341 341 341 341 341 340 341 343 343 343 343 341 339 338 337 336 337 336 336 336 337 337 335 334 332 333 335 335 335 335 335 336 335 333 332 332 334 337 338
337 334 330 327 327 333 339 342 343 341 341 342 342 343 343 344 345 343 344 344 343 342 342 341 341 341 342 343 344 344 344 344 344 343 343 343 342 342 342 341 341 341 341 341 340 340 341 340 340 340 340 341 343 343 342 342 343 341 340 339 338 337 337 337 337 338 339 339 339 338 336 334 334 334 334 334 333 333 332 331 332 334 337 338 338
335 333 330 327 328 335 339 341 341 340 341 342 343 343 344 345 345 344 344 343 342 341 341 340 340 341 343 344 345 344 344 344 344 344 344 343 342 342 342 342 342 341 342 341 340 340 340 340 339 340 341 343 344 343 342 343 343 343 342 340 339 338 337 337 338 338 339 340 339 339 338 337 334 332 332 331 331 331 331 332 334 336 337 337 337
335 334 330 327 330 335 338 339 340 341 341 342 343 343 344 345 345 344 344 342 342 341 341 341 341 341 343 345 345 345 345 344 344 345 344 343 343 343 343 342 342 342 342 341 340 340 340 339 338 340 342 343 343 343 342 342 343 344 342 340 339 337 337 338 338 339 339 339 339 338 339 338 335 333 331 330 330 330 331 333 335 337 336 336 335
335 333 330 329 331 335 337 339 340 341 341 342 343 344 344 344 344 344 344 343 342 343 343 343 343 342 343 344 344 345 345 344 344 344 343 342 342 343 343 342 342 342 342 342 341 340 340 339 338 340 342 343 342 342 342 343 344 343 340 338 337 337 337 338 338 339 339 338 338 338 338 337 336 335 332 330 329 329 331 333 334 335 335 334 333
335 333 331 331 332 333 337 339 340 341 341 342 342 344 345 344 344 344 343 343 343 344 344 344 343 341 341 342 343 344 344 344 343 343 342 341 341 343 343 343 343 342 342 341 340 338 338 336 338 340 342 343 343 342 342 343 343 342 338 336 335 336 338 338 339 339 338 338 338 338 337 336 335 335 333 331 329 330 331 332 332 333 333 333 332
333 331 331 331 331 333 337 340 340 340 340 341 342 343 344 343 345 345 343 343 343 344 344 344 342 339 339 340 343 343 343 343 343 342 341 341 342 342 341 342 342 341 341 340 338 336 335 336 338 341 342 343 343 342 342 342 342 342 340 338 337 337 338 339 338 338 338 338 337 337 336 335 335 334 333 332 332 332 332 331 331 331 331 331 332
331 330 331 331 332 335 338 340 340 340 340 340 341 342 342 342 344 344 344 343 343 343 343 343 341 338 337 339 341 341 341 342 343 342 340 341 341 341 340 340 340 340 339 338 337 334 333 336 339 341 342 343 343 342 342 342 342 341 340 339 338 338 338 339 338 338 337 337 337 336 335 335 335 334 335 335 335 334 331 331 331 330 331 331 332
330 330 331 332 335 337 339 340 339 340 340 340 341 341 341 342 343 344 344 343 343 343 343 342 340 338 337 338 339 339 340 341 342 341 340 340 340 339 339 338 338 337 336 334 333 332 331 335 339 341 343 343 343 343 343 342 341 341 339 337 335 333 333 334 336 337 337 337 336 336 335 335 335 335 335 336 336 335 332 330 330 330 331 331 331
331 331 332 334 338 341 341 340 339 340 340 340 340 339 340 342 343 344 343 341 342 343 343 342 340 338 338 338 338 338 340 340 340 339 339 338 338 337 337 336 335 334 333 330 329 331 334 338 341 342 343 343 343 343 343 342 342 341 341 339 334 329 327 328 330 333 335 336 336 335 335 335 335 335 335 336 336 335 333 331 331 331 331 332 331
331 332 334 337 340 343 342 340 340 340 341 340 340 339 340 341 342 343 341 340 341 342 343 342 340 338 338 339 338 337 339 339 338 338 338 337 335 335 334 334 334 333 332 331 333 336 340 341 341 341 342 343 343 343 343 342 342 342 342 341 338 331 327 326 326 328 332 334 334 333 333 333 333 334 335 335 335 334 333 333 333 332 332 331 330
332 334 337 339 342 344 343 342 341 340 341 340 339 339 340 341 342 342 340 339 339 340 341 341 339 338 339 340 338 336 337 338 337 336 336 335 334 333 334 334 335 335 336 336 338 341 342 342 341 342 342 343 343 343 343 343 342 342 342 342 340 333 329 329 328 329 330 330 331 331 331 331 332 332 333 333 334 334 333 333 333 332 331 328 327
334 336 339 341 343 344 343 343 342 341 341 340 339 339 340 340 341 341 339 339 338 338 339 339 338 338 339 339 337 336 336 337 335 334 333 332 333 334 334 334 336 338 339 340 341 342 342 342 342 342 342 343 343 343 343 343 342 342 342 343 340 335 334 335 332 331 331 331 332 331 332 332 332 332 332 333 333 333 332 331 330 329 328 326 325
337 340 342 343 344 343 343 343 343 342 341 341 340 340 339 339 341 340 340 340 339 338 338 338 337 337 337 337 335 335 335 335 334 333 332 331 333 334 334 335 337 340 341 341 342 342 342 342 342 342 342 342 342 343 342 342 342 343 343 342 340 340 341 340 335 333 332 332 332 332 332 332 332 332 332 331 331 330 329 327 326 325 325 323 322
342 343 344 345 345 343 342 343 343 343 342 342 341 340 339 338 339 340 341 342 339 337 338 337 337 337 337 336 334 334 335 334 334 333 332 333 335 337 338 338 340 341 341 342 342 342 342 342 342 342 342 341 342 342 341 342 343 344 344 343 342 343 343 341 339 338 335 331 331 331 331 331 330 329 329 328 328 326 325 324 323 323 322 321 321
345 344 344 346 344 343 343 343 342 343 342 342 341 339 339 338 338 339 341 342 340 338 338 337 337 337 337 336 333 333 335 335 336 337 337 337 338 340 341 342 342 342 342 342 342 342 342 342 342 341 342 342 343 343 343 344 345 345 345 344 344 344 344 343 342 342 340 334 334 335 332 330 330 328 327 326 325 324 323 322 322 322 321 321 322
346 344 345 345 342 342 343 342 342 342 342 342 341 339 338 339 339 339 341 342 341 339 339 338 338 337 337 337 334 333 335 337 339 340 340 341 340 341 342 343 343 342 342 342 342 343 343 343 343 342 342 343 343 344 344 345 345 345 345 345 345 344 344 343 343 342 339 336 336 336 331 328 328 327 325 324 323 323 322 321 321 321 322 322 323
347 346 347 345 341 343 345 343 343 344 344 344 343 341 340 340 340 341 343 343 342 341 341 341 341 339 339 339 337 334 336 339 340 340 341 341 342 342 342 343 344 343 342 342 342 343 344 344 344 343 344 344 344 344 344 345 345 345 345 345 345 345 344 343 343 342 339 337 335 334 332 328 326 325 324 323 323 322 322 322 322 322 323 324 325
348 347 348 344 341 344 346 345 344 345 346 345 344 343 342 342 342 343 345 344 343 342 342 342 343 342 341 341 339 336 338 341 341 341 340 341 342 343 343 344 345 345 344 344 344 344 344 344 344 345 345 345 344 344 345 345 345 346 346 346 345 345 345 344 344 344 342 341 337 335 335 331 325 324 324 323 323 323 322 322 323 324 325 326 327
349 348 348 345 342 345 346 346 345 345 346 345 345 345 344 345 345 345 345 345 345 343 343 343 343 343 343 343 341 338 339 341 341 341 340 340 342 344 345 345 346 346 345 345 345 345 345 345 344 345 345 345 345 345 345 346 346 346 346 346 346 345 345 344 343 344 344 343 341 339 338 334 328 324 324 324 324 323 323 324 325 326 327 328 328
350 348 347 345 344 345 347 348 346 346 346 345 346 346 346 347 346 346 346 346 347 345 343 343 343 344 344 343 342 341 340 342 343 342 341 341 342 344 345 346 347 346 346 345 346 346 346 345 345 345 345 345 345 345 346 346 346 346 346 346 346 346 345 344 343 343 344 343 343 341 339 338 335 330 326 325 324 324 325 326 327 328 328 329 329
350 347 346 345 345 346 347 348 348 347 346 345 346 347 347 347 347 347 347 347 347 345 343 343 344 344 344 343 342 342 342 343 344 342 342 342 342 343 344 346 346 346 346 346 346 347 347 346 346 345 345 345 346 346 345 345 345 345 347 347 346 347 346 345 344 343 343 343 343 343 341 340 339 338 332 326 325 326 326 327 328 329 329 329 329
349 347 346 345 347 348 348 349 350 348 346 346 346 347 348 348 348 346 345 345 344 343 342 343 344 344 343 343 343 342 342 343 344 344 343 342 342 342 343 345 346 346 346 347 347 347 347 347 346 346 346 346 346 346 346 345 345 346 347 347 347 347 346 346 344 343 343 343 343 344 343 341 339 341 337 328 326 327 328 328 329 329 329 329 329
348 347 347 347 348 348 348 350 350 348 347 346 346 347 348 348 347 345 343 341 341 341 341 342 344 344 343 344 344 344 343 344 344 344 343 343 343 343 344 345 346 346 347 347 347 347 347 347 347 347 346 346 346 345 346 345 346 346 346 346 346 346 346 345 344 343 343 342 342 343 343 342 339 340 339 333 328 329 329 330 329 329 329 329 329
348 348 348 346 347 348 347 349 350 348 347 347 346 346 346 347 347 346 344 342 341 340 339 341 343 344 344 344 345 345 344 344 345 343 343 343 345 346 346 347 347 347 347 347 347 347 347 348 347 347 346 346 346 346 346 346 346 346 345 344 344 344 344 344 344 343 343 342 342 342 342 341 338 338 339 335 331 330 330 330 330 330 329 329 331
348 348 348 346 346 348 347 348 350 348 347 347 345 343 345 346 345 346 347 345 343 341 339 340 342 343 343 343 344 346 346 346 345 343 342 343 344 346 347 347 347 346 346 346 347 347 347 347 347 347 347 346 346 346 346 345 345 345 344 342 341 342 342 342 343 342 342 342 342 342 342 341 340 338 338 336 333 331 330 330 330 329 329 330 333
347 347 347 345 345 348 346 347 350 348 347 347 343 341 343 345 345 346 347 346 344 343 342 343 344 343 342 343 344 346 347 347 346 344 343 343 343 344 344 345 346 346 346 345 346 347 347 347 347 347 347 347 346 346 346 345 345 345 343 342 342 342 342 341 342 341 342 342 342 342 341 341 340 338 337 337 336 335 333 332 332 331 329 331 335
347 346 346 345 345 348 345 345 348 347 347 347 343 342 345 347 347 348 347 346 346 346 346 347 348 347 342 343 344 344 346 347 347 346 345 344 343 343 343 344 345 346 345 344 345 347 347 348 348 347 347 347 347 346 345 344 344 344 343 343 343 342 343 343 342 341 341 341 341 341 341 341 340 338 337 338 339 340 337 337 339 337 333 332 336
346 344 344 344 345 347 345 344 345 346 347 347 344 344 347 348 349 349 348 347 347 347 348 348 350 349 345 343 343 343 344 344 345 346 346 345 344 343 343 343 345 347 346 344 344 344 346 348 349 348 348 347 346 345 345 344 344 343 342 343 344 344 345 345 344 342 341 341 342 341 341 341 341 340 339 339 340 341 341 341 342 343 341 338 338
345 343 343 342 344 346 346 345 344 345 346 346 345 346 347 348 349 349 348 348 348 348 348 349 349 349 346 343 343 342 343 343 344 345 345 345 345 344 344 344 345 347 346 345 343 343 343 344 346 348 348 347 346 346 346 346 345 344 343 344 345 345 346 346 345 343 342 342 341 341 341 341 341 341 341 341 341 342 342 343 343 345 345 342 340
344 342 342 343 343 345 346 345 344 344 345 345 345 345 346 347 348 347 348 348 348 348 349 350 350 348 345 342 343 343 343 343 344 345 345 345 345 344 344 345 346 346 345 343 341 342 342 341 343 347 348 348 347 347 347 346 345 344 345 346 346 346 347 347 346 344 343 342 339 339 340 341 340 341 341 342 342 342 342 343 344 345 346 344 344
343 342 343 343 344 345 345 344 343 342 343 343 344 344 344 346 347 346 347 347 348 349 349 350 350 349 346 344 343 343 343 343 344 345 345 345 344 344 344 345 345 345 343 341 340 341 342 342 343 346 348 348 347 347 347 346 345 344 345 346 347 347 348 347 345 344 345 343 339 338 339 340 340 341 342 342 342 342 342 342 343 345 345 345 347
343 342 343 343 343 344 345 343 342 342 343 342 342 342 342 344 346 345 346 347 347 349 349 349 349 348 347 345 344 344 343 343 344 344 344 344 344 344 344 344 344 343 343 342 341 341 341 342 344 345 346 348 348 348 348 347 345 344 344 346 347 347 347 346 344 344 345 344 343 340 340 340 339 341 342 343 343 342 342 342 342 344 345 345 347
343 343 343 343 343 344 344 342 341 341 342 342 341 341 341 342 344 344 345 346 347 348 348 350 349 348 346 345 344 343 343 343 343 343 344 344 344 344 344 344 343 343 343 343 343 342 341 342 344 344 345 347 348 348 348 348 346 344 344 346 347 347 347 345 344 345 345 345 344 343 342 340 339 341 342 342 344 343 343 343 343 344 345 345 346
343 343 343 343 343 343 343 343 341 341 342 342 340 340 340 341 342 342 343 345 346 346 347 349 349 347 346 344 343 343 343 343 343 344 344 345 344 344 344 344 344 343 343 344 345 345 344 345 346 346 345 347 348 349 348 348 347 345 345 346 347 347 346 345 345 345 346 345 344 344 344 343 340 340 340 342 343 344 343 343 343 343 344 346 347
Wind_Speed
20 19 19 18 17 16 15 13 12 12 13 13 13 12 12 12 12 11 11 11 11 11 11 11 11 12 12 11 11 11 11 12 12 13 13 14 15 15 14 14 14 13 13 12 11 12 13 14 15 16 17 16 17 17 17 17 15 15 16 19 21 18 18 19 19 19 19 17 16 16 16 17 18 18 18 18 19 19 18 18 18 17 18 17 16
21 20 19 19 17 15 14 12 12 12 12 12 12 12 11 11 11 11 11 11 10 10 10 10 11 11 12 12 11 11 11 11 11 12 12 13 14 13 13 14 14 13 13 12 11 12 14 14 15 17 17 17 18 17 16 16 15 14 14 19 20 16 16 18 19 18 18 17 15 15 16 17 18 18 18 18 19 19 18 17 17 17 17 16 15
21 21 20 20 17 15 13 12 12 11 12 12 11 11 11 11 11 10 10 10 9 9 8 8 9 10 11 11 11 11 11 11 11 12 12 12 13 13 12 13 13 13 13 12 11 12 13 14 15 17 18 17 18 17 16 15 14 13 14 20 19 15 15 16 17 16 16 15 15 15 16 17 17 17 17 18 19 19 18 17 16 17 16 15 15
21 21 20 19 17 15 13 12 11 11 12 11 10 11 11 11 10 9 9 9 8 8 7 7 8 8 9 9 9 9 10 10 10 11 11 11 12 12 11 12 12 13 12 12 12 12 12 15 16 17 18 18 17 17 16 15 14 14 17 21 19 16 15 15 16 15 15 14 14 15 17 17 17 17 17 17 17 17 17 16 15 15 15 15 15
21 21 20 19 17 15 13 11 11 11 10 10 9 10 10 10 9 9 9 9 8 8 7 7 7 7 8 8 9 9 10 10 10 10 11 11 11 11 11 11 11 12 12 11 12 12 13 15 16 17 19 18 17 17 16 15 15 17 20 21 18 15 15 15 15 15 15 15 14 16 17 17 17 17 16 16 16 16 15 15 15 14 14 14 14
21 21 20 19 17 14 13 11 10 10 9 9 9 9 10 9 9 9 9 9 8 8 6 6 6 7 7 8 8 8 9 10 10 10 10 11 12 11 11 11 11 11 11 11 11 11 13 14 16 17 18 19 18 18 17 16 17 19 21 20 17 15 15 15 15 15 16 16 16 16 17 17 17 16 15 15 15 15 14 15 14 13 13 13 13
20 20 19 19 16 14 13 11 10 9 9 10 10 10 9 9 8 9 9 8 7 6 6 6 5 5 6 6 7 7 8 9 9 9 10 11 11 12 11 11 11 11 11 11 12 11 13 14 15 16 17 20 20 20 18 17 18 19 20 19 17 16 16 16 16 15 15 15 16 16 16 16 16 16 15 14 14 14 14 13 13 12 12 12 13
20 20 19 18 16 14 13 11 9 9 10 10 10 9 8 8 8 8 7 7 6 6 6 6 6 5 5 6 6 7 8 9 9 9 10 10 10 11 11 11 11 11 11 12 12 12 13 13 15 16 17 20 21 20 18 18 18 18 18 18 17 17 16 16 16 15 14 14 14 14 15 15 15 15 14 13 13 13 12 12 12 11 11 11 11
21 19 19 17 16 15 13 11 9 10 10 10 9 8 7 6 6 7 6 6 6 6 6 6 6 6 6 6 7 7 8 9 9 10 10 10 10 10 10 10 11 11 12 12 12 13 13 13 15 16 17 18 20 19 18 17 19 19 17 17 16 16 16 15 15 14 14 13 13 13 14 14 13 14 13 13 12 11 11 11 11 11 11 10 10
21 19 18 17 16 14 12 11 10 10 10 9 8 7 6 6 5 6 6 6 6 6 6 6 6 6 6 6 7 8 9 8 9 9 9 9 9 11 10 11 12 12 12 12 13 14 14 15 16 17 17 18 19 18 17 17 17 17 17 16 15 15 15 14 13 13 13 13 13 12 13 13 13 13 12 11 11 11 12 12 11 11 11 11 11
21 20 18 17 16 14 12 11 11 11 10 9 7 7 6 6 5 6 6 6 6 6 7 7 6 6 6 6 7 9 9 8 8 9 9 9 10 11 11 12 13 12 13 13 14 15 15 16 17 17 16 18 19 18 17 16 15 15 16 15 14 14 13 13 12 12 11 11 11 11 12 12 12 12 11 11 11 12 12 11 9 10 11 11 11
21 20 19 17 15 13 12 11 12 11 10 9 8 7 6 6 6 6 7 7 7 7 7 7 6 6 6 6 7 10 10 8 9 10 10 10 10 11 12 13 14 13 13 14 15 15 16 17 17 16 17 17 17 17 17 16 14 14 14 14 13 13 12 11 11 11 10 10 9 10 11 12 12 12 11 11 11 11 10 9 8 10 11 11 11
22 21 20 17 15 13 13 12 11 11 9 8 8 7 7 7 7 7 7 8 8 7 8 7 7 6 6 5 6 10 11 9 9 10 11 10 10 11 12 13 14 14 14 14 15 16 16 17 16 16 17 17 16 16 16 15 13 13 13 13 12 12 11 11 11 10 10 9 9 9 9 11 12 11 11 10 10 9 8 8 8 9 11 11 11
23 22 20 17 15 13 13 12 11 10 9 8 7 7 7 8 9 9 8 8 9 8 8 7 6 6 6 5 6 10 12 10 9 11 11 10 10 11 13 14 15 15 15 15 16 16 16 16 16 16 16 16 16 15 15 14 13 12 12 12 12 11 11 12 11 11 11 11 10 10 9 10 11 10 9 8 8 8 7 7 8 9 11 11 11
23 22 19 17 16 14 13 12 11 10 9 8 7 7 8 8 9 10 8 8 9 8 7 7 7 6 6 6 6 10 12 11 10 10 10 11 11 12 14 14 15 15 16 16 16 16 16 16 15 15 16 15 15 15 14 13 12 11 11 11 11 11 11 12 12 11 11 11 11 11 11 11 11 10 8 7 7 7 6 7 8 9 10 10 10
21 20 19 17 16 15 14 12 11 9 9 8 8 8 8 8 9 9 9 8 9 8 8 7 7 7 6 6 7 9 13 13 12 11 11 12 12 13 14 15 15 16 17 17 17 16 15 15 14 14 14 14 15 14 13 12 11 11 10 10 10 10 11 11 11 10 10 11 11 11 12 11 10 10 9 8 7 7 6 7 8 9 9 10 10
21 20 18 17 16 15 14 13 11 10 9 8 8 8 8 9 9 9 9 9 9 8 8 8 7 7 7 6 6 8 13 14 14 14 12 12 13 13 15 15 15 16 16 17 17 16 15 14 13 13 13 14 15 14 13 12 11 11 10 9 9 9 10 9 9 9 9 10 10 10 10 11 10 9 9 8 7 7 6 7 8 8 9 9 9
21 19 17 16 15 15 15 13 11 10 10 9 9 9 9 9 9 9 9 9 8 8 8 8 8 9 8 8 8 9 11 13 14 15 13 12 13 13 15 16 16 15 15 15 16 16 15 14 14 13 13 14 14 13 13 12 11 10 9 8 8 8 8 8 7 7 8 8 9 9 9 10 9 9 8 8 7 7 7 7 7 8 8 8 8
21 19 17 16 15 15 15 13 12 11 10 10 10 9 10 9 9 10 9 9 8 8 9 9 9 9 9 8 9 10 11 11 12 14 14 13 14 14 15 16 16 16 15 14 15 15 14 14 14 14 14 14 13 13 12 11 10 9 8 7 7 7 7 7 6 6 6 7 7 7 8 8 8 8 7 7 7 7 7 6 7 7 7 7 7
21 20 18 16 15 14 14 13 12 11 11 11 10 10 10 10 10 10 9 9 9 9 9 9 9 9 8 7 9 10 11 12 12 13 14 14 14 15 15 16 17 16 15 14 14 14 14 14 14 14 14 13 13 12 11 10 9 8 8 7 6 6 6 6 5 5 5 5 6 6 6 7 7 7 7 7 7 7 6 7 7 7 7 7 7
22 20 18 15 14 14 13 12 12 12 12 12 11 11 10 10 10 10 10 9 9 9 9 9 9 9 7 7 8 9 11 12 12 13 14 14 14 14 15 16 17 16 14 13 12 13 14 14 14 14 13 13 12 11 10 9 8 8 8 6 5 5 6 5 4 4 5 5 5 5 5 5 5 6 6 7 7 6 6 6 6 6 7 7 7
23 20 17 16 14 13 13 13 13 12 13 12 12 12 10 11 11 11 11 10 9 9 9 9 8 8 8 8 8 9 11 11 12 13 14 14 14 13 14 15 16 15 13 13 12 13 14 15 14 14 12 11 11 10 9 8 7 7 7 6 5 5 5 5 4 4 4 4 4 4 5 4 4 5 6 6 6 6 6 6 6 6 6 6 6
23 20 18 16 14 14 13 13 13 13 13 13 12 12 11 12 11 11 11 10 10 9 10 8 8 8 8 9 9 10 11 12 12 12 14 14 14 13 13 14 14 14 13 12 12 13 15 15 15 13 12 11 10 9 8 7 7 8 7 6 5 5 4 4 4 4 4 4 4 4 4 3 3 4 5 5 5 5 5 5 6 5 5 5 6
23 20 18 16 15 14 13 13 13 13 13 12 12 11 12 12 12 12 12 11 10 10 10 8 8 8 9 9 10 11 12 12 12 12 14 14 14 14 14 14 14 14 13 13 13 14 15 15 14 13 12 11 10 9 8 7 7 8 8 8 6 5 4 4 4 3 3 4 4 4 3 2 3 4 4 4 4 4 5 5 5 5 5 5 5
22 19 18 17 16 15 14 14 13 13 12 11 11 11 13 13 13 12 12 12 11 11 10 8 8 9 9 9 10 11 12 12 12 13 13 14 14 15 15 15 14 14 13 14 15 15 15 15 14 13 12 11 10 9 8 8 8 10 10 9 8 6 4 3 3 3 3 3 4 3 2 3 3 3 4 4 4 4 5 5 4 4 5 5 5
21 20 19 18 17 15 14 14 13 13 12 12 11 11 13 14 13 12 12 12 11 11 10 8 8 9 9 9 9 10 11 12 13 13 13 13 14 15 15 15 14 15 14 15 16 16 16 15 15 14 13 12 10 9 8 8 8 10 11 11 9 8 6 4 3 3 3 3 3 3 2 3 3 4 4 4 4 4 5 5 5 5 5 6 6
21 20 19 18 17 15 15 14 13 13 13 13 12 12 13 13 13 12 12 12 12 11 10 10 9 9 9 9 9 9 11 12 13 13 13 14 14 14 15 16 16 16 16 16 17 18 17 16 15 14 12 11 9 8 7 7 7 8 10 10 10 9 9 7 5 4 4 3 3 3 3 3 3 4 4 4 4 4 5 5 5 6 6 6 6
21 20 19 18 17 15 15 14 13 13 13 13 12 12 13 13 13 12 12 12 11 11 10 10 10 10 9 8 9 10 11 13 13 13 14 15 15 15 16 17 18 18 18 18 18 17 15 15 13 12 10 9 7 6 5 4 5 7 8 9 9 9 10 10 8 7 5 5 4 3 3 3 3 3 4 4 4 4 5 5 5 6 6 6 6
21 20 19 17 16 15 15 13 13 13 13 13 13 13 13 12 13 12 12 11 11 11 10 11 10 10 10 9 10 11 12 12 13 14 15 16 16 17 17 19 19 19 18 17 16 14 12 11 10 9 8 7 6 4 3 3 4 6 7 8 8 9 10 10 9 8 6 6 5 4 4 4 3 3 4 4 4 4 4 4 5 5 5 6 7
21 19 18 17 16 15 14 13 12 12 13 13 12 13 13 12 12 13 12 11 11 11 11 11 11 11 11 11 11 12 13 13 13 14 15 15 16 17 17 18 18 17 16 15 13 11 10 8 7 7 6 6 5 4 2 3 5 7 8 8 8 8 10 10 10 9 8 7 6 6 5 5 4 4 4 4 5 5 5 4 4 5 6 7 8
19 17 17 16 16 15 14 13 12 12 13 12 12 13 13 13 12 13 12 11 12 11 12 12 12 12 12 12 12 13 14 14 14 14 14 14 15 16 17 17 16 15 14 13 12 11 10 8 7 7 6 6 5 4 4 6 7 8 9 9 9 9 10 11 11 11 10 8 8 8 7 6 5 5 5 5 5 5 5 5 6 7 8 9 9
17 17 17 16 17 15 14 14 13 13 13 13 13 13 14 14 13 13 12 12 12 12 11 12 12 12 12 12 13 14 14 14 14 13 13 13 14 15 16 15 14 14 12 12 12 12 10 8 8 7 6 5 4 5 6 7 8 8 9 9 8 9 10 11 11 11 10 8 8 8 8 6 5 5 6 6 6 6 7 7 7 8 9 10 10
17 16 16 17 16 15 14 14 13 13 14 14 13 13 14 14 13 13 12 12 11 11 11 11 11 11 11 12 13 14 13 13 12 11 12 12 13 14 14 14 13 12 12 12 12 12 10 8 8 7 6 5 4 3 3 5 6 7 7 7 7 8 9 10 11 11 11 9 7 7 8 7 7 6 7 7 8 8 8 8 9 9 10 10 10
18 17 17 17 16 16 15 14 14 13 14 15 15 14 14 13 13 12 11 11 11 11 10 10 11 10 11 11 13 14 13 11 11 11 11 11 12 13 13 12 12 11 11 11 11 10 9 7 7 7 5 3 2 1 0 2 5 6 6 7 7 7 8 8 9 10 10 10 8 8 9 9 8 8 8 9 9 9 9 10 10 10 10 10 10
19 18 17 17 17 16 15 14 14 13 14 15 15 15 14 13 12 12 11 11 11 11 11 11 11 11 11 12 13 15 13 11 10 11 11 12 12 12 12 11 10 10 9 10 9 8 7 7 7 6 4 4 4 3 1 1 3 4 5 6 6 7 7 7 7 7 9 9 9 9 10 10 9 9 9 10 9 9 10 10 11 10 10 10 10
20 18 17 17 17 16 15 14 14 14 14 15 15 15 13 12 11 12 12 11 11 11 10 11 11 11 11 13 14 15 13 11 11 11 11 11 11 11 11 10 9 9 8 8 8 8 7 7 6 5 5 5 5 4 2 2 1 2 3 4 5 6 7 6 5 5 6 8 8 8 10 11 10 10 10 10 9 9 10 10 10 10 9 9 9
20 18 18 19 17 16 15 14 15 15 15 15 15 15 14 12 12 12 11 11 10 10 10 11 12 11 12 13 13 13 13 11 11 11 12 11 11 11 11 10 10 9 8 8 8 7 6 6 6 5 5 4 4 3 3 3 1 1 2 4 5 5 6 5 4 5 5 6 7 7 8 10 10 10 10 9 9 9 9 9 9 8 8 8 8
20 18 19 18 16 15 14 14 15 15 16 16 15 16 15 14 13 12 11 10 9 10 11 11 12 13 13 13 12 12 12 11 11 12 12 12 11 12 11 11 10 9 8 8 7 7 6 6 5 5 5 5 4 3 3 3 1 1 2 3 5 5 5 5 4 4 5 5 6 6 7 8 8 9 9 9 9 9 9 8 8 7 7 7 8
21 19 18 17 15 14 14 15 15 15 17 17 16 16 16 15 14 13 12 11 10 11 12 11 12 14 13 12 11 11 12 11 11 12 13 12 12 12 12 11 10 9 8 7 7 6 5 6 6 6 6 5 4 4 3 2 1 1 0 1 4 6 6 6 5 4 4 5 4 4 5 6 6 7 8 9 9 8 8 8 7 7 7 7 8
21 19 17 16 16 15 15 16 16 16 18 18 18 18 18 17 15 15 14 13 12 11 11 10 12 14 13 11 10 10 11 12 12 12 13 13 12 11 11 10 10 9 8 7 6 6 6 7 7 6 7 7 5 4 3 2 1 1 2 3 4 6 6 6 4 4 4 4 4 4 4 4 5 5 6 8 8 8 7 7 7 6 7 7 8
22 20 18 16 17 16 17 18 17 17 18 19 18 19 20 18 17 16 15 14 13 11 11 11 11 12 12 10 11 11 11 11 11 12 13 13 12 11 11 10 9 9 8 7 7 7 8 7 7 6 6 7 5 4 3 3 3 4 4 5 5 5 6 6 5 4 4 4 4 3 3 3 4 4 4 7 8 7 7 6 6 7 7 7 8
24 21 19 17 17 17 17 19 19 19 19 18 18 19 20 19 17 15 14 13 12 11 11 11 10 10 10 10 11 11 11 11 11 11 12 12 12 12 11 9 9 9 8 7 7 8 8 7 6 6 6 5 4 3 2 3 3 4 5 6 3 2 3 5 6 5 4 3 3 2 2 2 4 5 5 6 8 8 7 6 7 7 7 6 7
23 22 21 19 18 17 17 20 20 19 18 18 18 20 20 19 16 14 13 12 11 10 9 9 9 8 9 9 10 11 11 10 10 10 11 11 11 11 11 10 8 8 8 8 8 8 7 6 6 5 5 4 3 2 2 2 2 3 5 4 4 4 4 4 6 6 6 4 2 2 2 3 4 5 6 8 8 8 8 8 8 8 7 6 7
24 23 23 21 20 19 17 18 20 19 18 18 18 19 19 17 15 13 11 10 10 9 8 8 7 7 9 9 9 10 11 10 9 10 10 9 9 10 11 10 8 8 7 7 9 9 8 7 7 7 6 5 4 3 2 3 3 3 3 4 6 7 7 8 8 5 5 5 3 2 2 3 4 5 6 6 7 7 7 8 10 10 8 5 5
26 23 23 22 21 20 17 16 17 18 18 18 17 18 20 19 17 15 13 12 11 11 11 9 8 7 8 9 9 9 10 9 8 9 10 9 9 9 9 9 8 7 6 6 8 9 9 9 9 9 8 6 4 4 3 2 3 4 2 4 6 7 9 11 10 6 5 5 5 4 1 1 3 3 3 3 3 4 5 7 9 10 10 7 5
27 23 22 20 19 20 18 16 16 17 18 18 17 19 22 22 21 19 16 16 15 15 12 10 9 8 8 9 9 9 9 9 9 9 9 9 9 9 8 8 7 6 6 6 7 8 9 10 10 10 9 7 5 4 3 2 3 4 2 4 5 6 8 10 11 9 7 7 7 6 3 1 1 3 3 3 3 3 4 5 7 9 10 10 8
27 24 23 20 19 20 19 17 17 17 18 19 18 19 22 24 22 20 18 16 15 14 11 9 8 7 8 8 9 9 10 10 9 8 8 8 8 8 8 8 8 8 7 7 8 8 8 9 10 10 10 8 6 5 4 3 4 4 3 3 4 4 7 9 10 10 10 9 8 6 4 2 1 2 3 3 3 2 2 4 6 7 8 10 11
27 26 25 22 20 21 19 17 17 17 17 19 19 19 22 24 22 20 18 16 14 12 10 9 9 8 8 8 8 9 10 10 10 8 8 8 8 8 9 9 9 9 9 8 8 8 8 9 9 10 10 9 8 6 5 4 4 5 4 3 3 3 5 8 8 9 10 10 7 4 3 3 2 2 2 3 3 2 2 3 4 5 6 9 11
29 28 26 23 21 21 20 18 18 18 17 18 20 20 21 23 22 20 18 16 14 12 11 10 10 10 9 9 9 9 10 10 10 9 9 8 9 9 9 10 10 10 9 9 9 9 9 9 8 9 10 10 8 7 6 6 6 6 7 5 4 3 3 5 6 6 8 9 7 6 4 4 2 2 2 1 2 2 2 2 2 3 5 8 11
31 28 26 23 22 21 21 20 19 19 17 18 21 22 21 22 22 20 18 15 14 14 13 12 12 11 10 10 11 11 11 11 11 10 10 9 10 10 10 9 10 10 10 9 9 9 9 8 8 8 10 10 9 9 8 8 8 8 8 7 5 4 3 2 3 4 6 8 8 8 7 7 5 2 3 2 1 1 2 2 2 3 6 9 10
32 31 28 25 24 22 21 20 19 19 19 19 22 23 22 22 22 21 18 16 15 14 15 14 14 13 12 12 12 12 12 12 11 11 11 11 10 10 10 10 10 10 9 9 9 9 8 8 7 7 9 10 10 11 10 9 8 8 9 8 6 5 4 2 2 3 5 6 7 7 7 8 7 6 5 5 3 2 1 2 4 4 6 9 9
Wind_Direction
151 144 143 139 134 130 124 125 126 125 125 126 124 120 115 113 114 116 118 117 118 118 120 121 124 129 134 140 142 141 132 128 125 124 126 121 118 121 123 120 117 116 117 119 121 119 115 118 120 118 118 121 121 122 125 124 118 113 116 127 128 124 124 120 115 112 110 110 110 107 103 105 106 104 100 98 100 104 105 103 103 101 97 96 97
148 144 143 140 136 130 127 129 127 128 128 131 126 119 115 115 116 118 118 115 115 114 116 118 121 126 132 139 142 143 140 137 132 129 128 124 123 126 127 125 123 120 121 122 122 119 116 119 122 122 124 125 123 125 127 121 117 116 120 129 129 126 123 117 114 111 110 113 114 110 107 107 106 104 102 100 101 104 104 103 102 100 97 98 99
148 145 143 141 137 132 131 132 129 131 132 134 129 122 119 121 123 123 122 118 116 114 118 124 129 132 134 137 138 139 139 138 137 136 133 130 129 130 131 129 127 125 124 124 122 119 119 121 125 126 126 125 124 126 124 119 121 121 126 131 130 127 121 116 113 110 112 118 119 115 112 109 106 105 103 102 102 103 104 104 101 99 100 101 101
150 146 144 143 140 136 135 133 131 133 135 135 130 123 123 127 129 128 126 122 117 116 119 125 132 138 140 139 139 140 138 138 139 141 138 137 137 134 135 131 129 128 126 127 125 125 126 125 127 126 124 125 126 127 122 116 117 120 126 129 130 127 122 119 116 115 117 119 119 117 115 112 109 106 104 103 103 104 105 104 102 101 102 104 103
152 148 146 146 144 140 136 134 134 135 133 130 127 124 126 129 131 131 128 124 120 118 119 123 132 143 150 150 150 147 142 142 143 144 142 144 145 142 140 133 129 127 126 129 130 134 131 127 127 122 122 126 126 124 115 108 110 119 125 127 128 126 122 119 117 117 119 121 121 116 113 111 109 107 105 105 104 104 104 104 103 103 104 104 103
153 149 148 149 147 141 138 138 137 134 129 126 123 121 122 124 127 127 126 124 122 120 124 130 138 145 152 156 153 150 144 140 140 142 145 149 149 147 144 136 132 130 130 131 131 135 130 129 129 123 124 128 127 119 111 107 108 120 126 126 126 122 117 115 116 119 122 124 120 115 113 113 110 107 106 106 106 106 105 104 104 105 105 103 102
153 150 150 150 147 144 141 140 139 134 129 125 121 119 120 123 125 123 122 122 124 124 129 136 141 145 147 149 145 144 139 133 133 140 149 154 151 149 147 141 139 136 134 132 133 134 129 132 131 127 129 132 130 120 116 116 113 119 125 126 124 120 118 119 122 122 122 121 118 116 116 114 111 110 109 110 110 109 107 104 103 104 104 102 102
154 152 151 150 149 146 141 141 143 135 128 121 118 119 120 124 124 122 122 123 126 129 134 140 143 144 140 137 138 136 129 129 136 145 153 156 154 152 151 150 144 137 135 132 134 136 133 133 130 130 134 134 129 121 120 123 122 122 123 124 122 122 123 124 125 122 120 119 119 119 116 113 114 114 114 115 114 111 108 106 105 106 104 103 104
156 154 152 152 151 145 142 146 144 131 124 120 119 120 122 123 122 124 125 125 128 131 132 137 140 141 140 137 137 131 125 134 145 150 151 153 157 153 154 154 144 137 134 133 135 135 134 132 129 131 133 131 127 124 121 121 126 127 126 125 124 125 125 124 123 121 120 118 119 119 115 115 117 117 117 117 114 110 105 103 104 105 106 106 105
158 155 154 154 151 145 145 148 137 126 124 122 121 119 120 120 123 128 126 127 128 128 131 135 141 141 142 139 134 126 127 140 149 149 148 152 156 151 153 151 142 139 134 134 136 133 132 131 129 130 131 130 128 127 124 119 124 127 127 127 127 128 126 124 121 119 118 117 118 117 115 117 119 118 117 115 111 108 101 95 95 100 104 104 102
159 156 156 155 149 146 148 146 132 128 129 127 124 122 122 125 130 133 131 134 132 129 133 137 140 141 142 140 134 125 126 142 148 147 150 156 157 153 152 146 142 141 136 136 136 133 133 131 129 130 131 130 129 129 125 122 124 125 126 128 129 127 124 123 122 120 118 118 119 118 117 119 118 117 119 118 113 107 100 95 94 97 100 101 100
159 158 157 155 148 149 150 143 135 135 137 135 129 130 133 135 136 136 139 139 135 131 131 132 134 140 142 141 137 122 122 140 144 143 148 155 156 153 149 144 143 140 138 137 134 133 133 131 129 128 129 129 130 129 127 126 124 123 124 126 125 122 120 121 122 120 117 119 122 123 122 120 118 119 122 118 112 105 100 99 96 95 98 101 101
159 159 158 153 149 153 150 141 140 139 139 136 129 136 142 142 141 139 140 138 132 128 127 128 132 142 144 142 133 115 120 138 139 140 144 150 152 149 146 143 141 138 138 137 132 132 132 130 127 127 128 128 129 129 129 128 124 122 122 122 121 120 119 118 116 112 110 113 121 128 131 127 121 120 123 119 113 109 106 102 94 93 97 101 102
159 159 159 154 152 153 148 144 143 142 140 136 134 145 149 147 147 141 139 135 128 125 126 129 133 139 140 139 130 116 122 133 133 137 141 145 146 142 141 139 138 136 136 135 131 131 131 129 128 129 129 129 130 131 131 128 123 120 120 120 122 120 117 113 108 105 105 110 115 121 128 134 131 127 128 127 123 117 110 99 91 92 96 98 99
161 160 158 156 154 150 149 147 145 145 142 141 145 151 150 148 145 138 137 135 127 127 128 131 136 135 136 137 131 123 125 128 129 132 133 136 138 136 137 137 136 136 136 134 132 131 131 131 130 131 131 133 131 130 129 123 118 117 117 118 120 117 113 106 103 102 103 106 108 109 113 119 127 130 133 134 128 119 111 98 91 93 95 95 94
162 160 159 158 154 150 150 147 145 144 144 148 150 151 148 144 140 136 138 137 130 130 129 128 132 130 131 131 127 123 121 124 126 127 128 130 132 133 135 136 137 137 137 135 134 134 134 132 130 131 132 133 131 128 126 120 117 116 114 116 117 114 108 103 101 101 100 100 99 100 102 105 112 120 127 130 126 119 109 98 94 94 94 93 93
163 162 160 158 155 152 150 147 147 147 151 152 148 150 146 140 140 140 141 137 133 132 129 126 130 129 126 122 118 113 114 121 127 126 126 126 127 130 132 135 138 138 138 136 136 136 135 132 130 130 130 131 129 127 126 122 119 115 114 118 116 110 105 104 102 99 99 98 97 94 94 99 107 114 120 123 120 115 105 97 95 93 92 93 95
164 164 161 160 158 155 152 149 153 154 157 153 149 149 143 143 144 143 140 136 135 133 127 124 125 124 122 119 112 106 108 115 121 121 121 123 126 129 131 134 137 138 139 139 138 137 135 134 133 132 131 130 128 128 127 123 119 114 113 115 111 107 105 104 102 98 99 99 97 93 91 94 102 107 111 113 110 105 99 96 96 93 94 96 96
165 167 165 166 162 158 156 155 158 158 160 155 151 148 143 148 145 141 139 137 135 130 125 120 117 113 116 118 114 111 109 110 112 114 119 124 127 129 132 135 137 138 140 141 140 137 136 137 135 134 134 131 128 129 129 125 121 117 112 109 106 106 105 104 101 100 98 96 93 89 91 92 95 99 101 100 96 93 94 95 96 95 95 93 89
168 170 170 169 164 162 160 160 161 161 163 157 152 150 147 147 145 141 139 138 135 132 128 120 114 110 116 120 118 118 116 116 115 114 117 121 126 128 133 135 137 140 141 142 143 141 140 141 138 137 137 132 131 131 131 128 122 118 111 106 106 106 105 105 104 105 99 90 88 87 91 91 91 94 92 87 85 85 91 94 94 90 84 80 75
171 173 172 169 165 165 164 163 164 165 164 159 155 152 149 146 146 145 141 141 141 139 134 127 123 119 124 126 123 122 118 120 119 117 115 119 125 128 132 137 138 141 143 143 146 145 144 146 143 141 139 133 132 132 131 128 122 116 108 103 105 102 102 105 106 102 96 87 86 88 87 85 88 91 85 80 81 84 86 88 85 78 71 66 61
173 173 172 170 168 167 166 165 166 166 162 159 158 153 152 149 148 149 146 144 146 146 140 134 133 131 133 133 129 123 120 121 121 120 119 122 127 129 132 136 137 140 143 144 146 147 146 148 146 143 138 129 128 128 127 126 119 110 100 97 95 90 96 99 99 95 90 87 84 83 79 75 81 87 83 78 78 79 77 74 72 69 61 55 48
174 171 170 170 169 168 167 167 167 165 160 158 158 156 156 155 152 153 149 145 149 150 144 141 139 136 136 136 135 129 125 124 122 124 126 127 129 132 134 134 137 140 143 143 144 145 145 146 144 140 133 124 123 121 118 114 104 99 93 86 80 76 83 88 91 89 83 81 77 73 70 71 77 83 81 75 72 68 65 65 64 60 52 45 38
172 169 168 169 170 170 169 169 167 164 159 156 158 159 161 160 158 156 152 149 153 153 148 147 143 137 136 138 139 133 131 129 129 133 134 132 133 137 139 138 140 141 143 144 144 146 146 146 142 136 129 124 121 113 106 97 90 89 82 74 69 66 72 86 91 85 78 73 69 63 64 70 74 78 76 70 65 58 52 53 55 50 43 33 29
170 168 170 171 171 172 172 170 167 163 157 154 159 162 162 163 161 158 157 155 157 156 151 150 144 139 138 139 142 137 134 135 138 140 138 138 138 140 140 139 139 138 142 143 143 146 145 141 135 129 126 123 116 110 103 94 87 79 70 63 58 58 66 87 92 86 74 67 63 59 67 71 64 66 70 63 53 46 40 40 42 35 28 21 20
172 171 171 172 171 172 173 170 166 162 154 153 161 164 164 165 163 159 160 160 161 158 151 152 147 144 143 141 144 142 139 139 141 141 140 140 140 139 139 137 136 134 136 137 137 136 134 129 124 123 121 117 112 108 102 92 82 70 62 56 50 52 60 69 75 77 69 64 62 57 65 70 61 57 60 54 41 35 32 32 30 24 21 18 19
174 172 172 172 171 171 173 171 166 163 157 157 163 167 166 163 162 160 161 162 163 161 155 153 151 150 151 148 145 142 143 144 142 141 140 139 137 136 136 134 132 130 130 131 130 127 125 122 120 120 116 114 110 106 99 88 79 67 58 51 45 47 56 59 61 64 63 62 61 57 60 64 62 56 51 46 37 32 30 28 24 22 22 24 30
176 174 175 173 170 170 171 169 166 165 162 160 163 167 167 162 161 161 161 162 162 162 158 155 154 156 158 155 148 142 145 145 143 142 139 137 135 134 133 132 130 129 129 129 128 125 124 123 121 120 115 114 113 108 99 86 71 61 55 47 41 48 56 56 56 58 57 54 53 52 54 58 60 58 52 46 40 35 31 27 24 24 30 37 44
179 177 176 173 170 170 170 167 167 168 165 163 163 165 167 163 161 160 159 161 163 161 156 155 155 158 158 156 151 145 144 144 143 142 140 138 136 135 134 132 130 129 130 129 128 127 126 128 128 127 124 122 121 119 108 81 62 53 50 48 49 57 58 54 52 52 51 49 46 45 44 46 50 51 51 47 42 41 35 31 31 37 46 54 57
181 181 178 173 172 172 170 166 169 172 168 166 165 165 166 164 160 161 160 159 162 158 152 154 156 156 155 152 152 148 144 143 144 143 143 144 142 140 138 136 135 133 133 133 132 133 136 139 143 147 149 143 134 134 121 79 67 60 58 63 68 65 57 54 52 47 43 44 43 42 39 37 39 43 47 48 47 46 43 45 52 61 66 67 67
183 185 180 176 176 175 171 168 173 176 171 167 167 167 164 162 162 162 162 159 160 155 148 152 156 156 152 148 149 149 147 146 147 147 147 149 148 145 142 141 140 140 141 142 142 143 144 145 150 156 160 153 135 119 103 85 76 71 72 75 74 64 55 54 53 46 40 42 43 42 41 39 40 46 51 54 56 58 59 65 71 75 76 74 72
186 187 181 180 179 174 171 170 175 177 171 167 168 166 163 163 164 163 161 158 158 154 150 152 156 156 152 149 151 152 150 149 150 149 150 152 152 149 146 145 146 148 149 149 148 146 147 149 152 153 153 144 124 103 90 83 76 71 73 70 63 55 52 51 47 41 37 39 40 37 38 41 46 53 60 66 69 72 73 76 78 77 77 75 73
187 187 183 183 180 174 170 170 173 174 169 167 166 164 164 165 165 164 162 161 159 157 157 159 162 162 159 156 159 159 156 156 159 159 158 158 160 158 155 152 151 153 154 154 152 152 155 159 158 157 152 134 117 111 86 71 64 59 61 56 49 45 45 46 44 40 39 40 40 38 41 46 56 64 71 76 78 79 80 80 80 78 77 74 71
187 188 185 182 180 175 173 172 171 171 170 168 166 165 167 168 167 166 163 164 165 165 168 171 173 174 173 170 169 171 168 166 170 173 171 170 170 168 164 160 157 158 160 161 161 162 165 165 163 161 161 157 150 165 137 37 42 45 52 50 44 40 41 41 41 42 42 45 50 54 53 55 63 72 79 81 81 82 82 82 81 79 77 73 68
191 189 186 180 180 178 176 175 172 170 171 170 167 166 168 169 170 168 163 166 169 172 177 180 181 182 184 180 177 179 177 174 176 178 176 175 175 173 170 169 165 163 165 166 168 171 172 172 170 167 174 202 226 232 248 326 14 35 45 47 41 33 31 28 27 34 41 46 53 58 56 57 65 73 78 80 83 86 85 84 82 79 75 69 63
193 190 185 179 180 180 176 176 176 173 171 169 166 165 167 171 171 166 163 167 172 177 182 184 183 183 185 182 179 182 182 181 180 179 176 174 173 174 176 177 174 170 168 165 167 172 176 180 179 173 175 193 212 227 251 278 334 45 33 20 15 13 16 18 13 13 29 40 44 50 51 54 63 70 75 76 80 86 86 86 82 77 72 65 58
194 193 186 181 179 180 179 176 175 174 172 169 165 163 163 165 162 159 160 165 172 177 177 179 180 180 180 177 175 178 178 176 174 174 174 174 177 180 181 181 178 174 169 165 165 169 176 184 184 173 173 182 192 213 244 254 248 57 17 342 342 356 9 19 17 8 18 35 37 38 43 51 59 66 72 74 78 82 83 83 79 75 68 60 55
196 195 190 184 180 182 183 178 174 173 173 170 163 159 157 154 152 152 156 161 166 170 167 167 173 174 172 171 171 172 172 170 168 170 173 177 184 186 185 182 178 174 169 166 166 171 175 179 182 176 176 177 183 209 234 240 239 51 31 354 340 341 346 354 1 5 15 27 29 27 33 45 54 61 68 73 77 79 79 77 72 67 59 54 51
193 194 192 186 184 188 188 182 176 172 172 171 163 160 157 151 149 147 151 157 159 165 165 163 168 170 167 166 168 172 175 173 170 173 176 180 182 182 183 181 179 176 174 172 172 175 173 170 175 178 182 180 186 211 228 230 206 121 62 328 327 323 318 329 339 349 4 11 12 13 23 38 47 55 67 75 77 75 73 70 63 55 48 46 48
190 191 190 189 191 193 192 186 179 174 174 173 168 166 163 156 152 148 149 154 158 163 166 161 160 164 164 163 167 174 178 177 176 177 179 180 179 177 179 181 181 181 181 181 176 175 171 166 165 173 184 188 191 209 227 244 255 258 280 289 306 308 301 307 323 336 351 358 356 359 12 35 47 51 66 79 81 74 66 60 52 47 46 45 46
189 191 191 193 196 195 194 190 182 178 178 178 176 173 168 163 160 155 149 150 154 159 163 158 155 159 161 162 167 173 175 176 177 177 177 180 182 181 181 185 187 187 187 186 179 178 175 165 160 169 183 191 198 216 240 273 275 276 313 327 315 294 286 290 303 322 344 354 351 356 4 28 62 70 74 84 86 78 65 54 47 44 47 50 47
189 194 196 196 197 199 198 192 186 184 184 184 183 179 174 170 166 160 154 153 154 155 158 158 156 160 163 163 166 169 170 172 174 175 178 183 188 190 191 194 195 194 196 194 188 186 181 171 166 173 179 185 197 219 256 288 285 298 325 338 335 298 285 292 300 311 329 349 357 18 33 49 86 96 95 94 90 82 71 58 52 48 50 55 50
189 194 198 198 198 201 200 195 191 189 186 187 187 181 177 175 170 166 163 163 159 152 152 156 159 165 168 168 167 169 169 169 171 178 185 189 193 196 199 201 198 200 202 197 194 192 188 187 187 183 184 188 197 224 278 281 286 316 323 338 348 337 332 331 321 309 308 319 349 39 66 83 100 106 102 97 90 81 75 67 60 51 50 57 52
191 194 199 200 199 201 201 198 198 195 190 189 187 180 177 179 181 179 175 175 169 159 161 166 167 169 175 177 175 175 176 174 176 182 187 190 192 195 200 202 200 203 205 198 198 198 197 201 203 200 199 200 198 211 245 255 264 292 309 342 351 346 352 352 341 319 300 301 322 7 68 91 101 109 103 97 90 80 75 68 60 51 45 48 46
193 197 200 201 201 203 204 204 206 202 196 195 188 180 180 183 187 191 187 185 185 181 183 185 183 182 182 184 183 184 186 186 187 189 191 194 194 197 202 205 205 208 208 203 202 204 205 206 210 211 209 204 193 191 209 242 257 257 280 330 342 347 353 350 345 339 321 309 311 314 322 68 73 85 84 81 75 72 72 66 59 48 40 35 36
195 199 201 203 204 207 208 211 213 208 203 199 191 185 187 186 187 192 189 187 190 190 192 194 192 189 186 185 188 192 195 197 198 197 197 196 196 201 206 210 215 216 213 210 208 206 208 209 211 213 213 208 197 191 201 228 244 239 265 313 317 325 338 347 349 344 334 322 313 307 299 306 11 32 47 48 37 46 57 56 54 45 39 38 37
197 200 201 204 207 209 212 216 217 213 207 202 197 192 191 190 190 192 192 194 195 194 198 201 195 192 192 191 193 197 199 202 204 203 202 201 201 202 207 214 220 221 218 214 212 209 209 211 212 213 215 214 207 205 214 222 229 233 254 300 307 315 328 342 348 346 345 340 324 308 302 293 317 17 40 41 21 26 29 33 42 37 36 37 27
198 199 200 204 208 210 214 219 216 209 207 205 202 198 194 192 193 194 196 199 202 201 201 199 195 197 199 200 204 205 205 206 206 207 209 209 209 207 210 214 217 220 221 217 217 217 214 216 218 217 215 215 213 216 232 240 235 232 238 264 289 304 326 339 345 349 352 352 339 317 299 284 300 357 23 27 19 29 24 16 23 18 21 25 16
200 200 201 204 207 211 215 218 212 205 207 208 205 201 198 196 197 198 198 198 201 204 204 202 200 202 203 203 209 212 211 211 210 208 211 212 211 213 215 214 213 216 221 220 219 222 222 221 225 223 217 216 220 226 243 256 253 240 234 247 259 257 310 342 345 346 356 2 353 336 309 280 293 5 3 6 34 35 32 28 12 351 0 9 8
202 201 202 204 207 210 213 215 211 205 207 210 207 204 201 201 202 201 201 199 198 201 205 206 205 205 206 205 208 212 212 214 213 209 212 213 212 215 216 214 213 214 217 221 222 225 227 227 228 225 220 224 231 237 246 257 259 246 238 248 256 250 269 331 336 336 355 7 359 346 329 301 286 310 337 306 271 325 356 21 358 335 349 359 2
202 202 202 205 207 210 214 215 213 210 210 211 209 206 204 206 207 204 204 202 200 203 205 206 206 206 206 207 209 210 211 213 213 211 213 215 216 216 214 215 219 220 220 224 229 232 232 229 228 227 227 233 238 242 246 252 255 245 240 249 257 264 274 299 326 329 341 352 351 345 341 322 296 281 298 291 255 251 292 349 340 329 343 351 354